#timestamp,LO_Frequency,Hit,Temp,Hum 
1493888415.5,286047540.6,N,0.0,0.0
1493888435.4,286047541.7,N,0.0,0.0
1493888455.2,286047541.6,N,0.0,0.0
1493888475.0,286047541.9,N,0.0,0.0
1493888475.9,286047541.9,N,0.0,0.0
1493888495.8,286047543.6,N,0.0,0.0
1493888515.6,286047541.9,N,0.0,0.0
1493888535.4,286047536.8,N,0.0,0.0
1493888555.3,286047540.6,N,0.0,0.0
1493888575.1,286047539.3,N,0.0,0.0
1493888595.8,286047539.6,N,0.0,0.0
1493888615.7,286047542.0,N,0.0,0.0
1493888635.5,286047535.7,N,0.0,0.0
1493888655.3,286047536.7,N,0.0,0.0
1493888675.2,286047541.8,N,0.0,0.0
1493888695.9,286047541.4,N,0.0,0.0
1493888715.7,286047539.2,N,0.0,0.0
1493888735.6,286047539.9,N,0.0,0.0
1493888755.4,286047538.0,N,0.0,0.0
1493888775.2,286047538.5,N,0.0,0.0
1493888795.1,286047541.6,N,0.0,0.0
1493888796.0,286047541.6,N,0.0,0.0
1493888815.8,286047537.6,N,0.0,0.0
1493888835.6,286047540.3,N,0.0,0.0
1493888855.4,286047540.2,N,0.0,0.0
1493888875.3,286047541.1,N,0.0,0.0
1493888895.2,286047543.6,N,0.0,0.0
1493888915.0,286047542.4,N,0.0,0.0
1493888916.0,286047542.4,N,0.0,0.0
1493888935.8,286047543.4,N,0.0,0.0
1493888955.6,286047540.5,N,0.0,0.0
1493888975.5,286047540.9,N,0.0,0.0
1493888995.3,286047543.9,N,0.0,0.0
1493889015.1,286047542.8,N,0.0,0.0
1493889035.8,286047542.7,N,0.0,0.0
1493889055.7,286047543.4,N,0.0,0.0
1493889075.5,286047542.3,N,0.0,0.0
1493889095.3,286047540.9,N,0.0,0.0
1493889115.2,286047542.0,N,0.0,0.0
1493889135.0,286047541.8,N,0.0,0.0
1493889135.9,286047541.8,N,0.0,0.0
1493889155.7,286047542.8,N,0.0,0.0
1493889175.6,286047539.9,N,0.0,0.0
1493889195.4,286047537.3,N,0.0,0.0
1493889215.2,286047541.6,N,0.0,0.0
1493889235.1,286047539.0,N,0.0,0.0
1493889236.0,286047539.0,N,0.0,0.0
1493889255.8,286047537.5,N,0.0,0.0
1493889275.6,286047535.8,N,0.0,0.0
1493889295.5,286047534.1,N,0.0,0.0
1493889315.3,286047528.8,N,0.0,0.0
1493889335.1,286047529.1,N,0.0,0.0
1493889355.9,286047526.2,N,0.0,0.0
1493889375.7,286047527.1,N,0.0,0.0
1493889395.5,286047525.6,N,0.0,0.0
1493889415.4,286047525.8,N,0.0,0.0
1493889435.2,286047524.9,N,0.0,0.0
1493889455.0,286047520.4,N,0.0,0.0
1493889455.9,286047520.4,N,0.0,0.0
1493889475.8,286047518.5,N,0.0,0.0
1493889495.6,286047516.1,N,0.0,0.0
1493889515.4,286047514.6,N,0.0,0.0
1493889535.3,286047514.4,N,0.0,0.0
1493889555.1,286047511.5,N,0.0,0.0
1493889556.0,286047511.5,N,0.0,0.0
1493889575.8,286047507.4,N,0.0,0.0
1493889595.7,286047494.2,N,0.0,0.0
1493889615.5,286047507.2,N,0.0,0.0
1493889635.3,286047505.1,N,0.0,0.0
1493889655.1,286047501.5,N,0.0,0.0
1493889675.9,286047497.7,N,0.0,0.0
1493889695.7,286047605.7,N,0.0,0.0
1493889715.5,286047497.5,N,0.0,0.0
1493889735.4,286047498.6,N,0.0,0.0
1493889755.2,286047497.9,N,0.0,0.0
1493889775.0,286047496.8,N,0.0,0.0
1493889775.9,286047496.8,N,0.0,0.0
1493889795.8,286047491.7,N,0.0,0.0
1493889815.6,286047493.9,N,0.0,0.0
1493889835.4,286047492.2,N,0.0,0.0
1493889855.3,286047489.2,N,0.0,0.0
1493889875.1,286047495.3,N,0.0,0.0
1493889895.8,286047493.0,N,0.0,0.0
1493889915.7,286047483.3,N,0.0,0.0
1493889935.5,286047478.8,N,0.0,0.0
1493889955.3,286047479.3,N,0.0,0.0
1493889975.2,286047476.4,N,0.0,0.0
1493889995.9,286047475.2,N,0.0,0.0
1493890015.7,286047470.1,N,0.0,0.0
1493890035.6,286047479.6,N,0.0,0.0
1493890055.4,286047474.5,N,0.0,0.0
1493890075.2,286047467.1,N,0.0,0.0
1493890095.0,286047468.2,N,0.0,0.0
1493890096.0,286047468.2,N,0.0,0.0
1493890115.8,286047465.6,N,0.0,0.0
1493890135.6,286047463.7,N,0.0,0.0
1493890155.4,286047465.4,N,0.0,0.0
1493890175.3,286047466.8,N,0.0,0.0
1493890195.1,286047464.5,N,0.0,0.0
1493890215.8,286047464.5,N,0.0,0.0
1493890235.7,286047462.9,N,0.0,0.0
1493890255.5,286047461.3,N,0.0,0.0
1493890275.3,286047459.3,N,0.0,0.0
1493890295.2,286047459.5,N,0.0,0.0
1493890315.9,286047482.5,N,0.0,0.0
1493890335.7,286047456.5,N,0.0,0.0
1493890355.6,286047453.2,N,0.0,0.0
1493890375.4,286047457.1,N,0.0,0.0
1493890395.2,286047377.3,N,0.0,0.0
1493890415.1,286047451.3,N,0.0,0.0
1493890416.0,286047451.3,N,0.0,0.0
1493890435.8,286047451.6,N,0.0,0.0
1493890455.6,286047451.0,N,0.0,0.0
1493890475.8,286047451.8,N,0.0,0.0
1493890495.7,286047453.5,N,0.0,0.0
1493890515.5,286047449.7,N,0.0,0.0
1493890535.3,286047449.7,N,0.0,0.0
1493890555.2,286047450.7,N,0.0,0.0
1493890575.9,286047449.4,N,0.0,0.0
1493890595.7,286047453.8,N,0.0,0.0
1493890615.6,286047449.5,N,0.0,0.0
1493890635.4,286047450.1,N,0.0,0.0
1493890655.2,286047447.9,N,0.0,0.0
1493890675.0,286047448.7,N,0.0,0.0
1493890675.9,286047448.7,N,0.0,0.0
1493890695.8,286047448.2,N,0.0,0.0
1493890715.6,286047291.6,N,0.0,0.0
1493890735.4,286047447.0,N,0.0,0.0
1493890755.3,286047447.5,N,0.0,0.0
1493890775.1,286047443.3,N,0.0,0.0
1493890795.8,286047441.8,N,0.0,0.0
1493890815.7,286047444.3,N,0.0,0.0
1493890835.5,286047441.6,N,0.0,0.0
1493890855.3,286047443.3,N,0.0,0.0
1493890875.2,286047445.2,N,0.0,0.0
1493890895.9,286047443.3,N,0.0,0.0
1493890915.7,286047445.6,N,0.0,0.0
1493890935.6,286047443.4,N,0.0,0.0
1493890955.4,286047441.4,N,0.0,0.0
1493890975.2,286047445.8,N,0.0,0.0
1493890995.1,286047449.2,N,0.0,0.0
1493890996.0,286047449.2,N,0.0,0.0
1493891015.8,286047440.5,N,0.0,0.0
1493891035.6,286047446.8,N,0.0,0.0
1493891055.5,286047415.3,N,0.0,0.0
1493891075.3,286047447.3,N,0.0,0.0
1493891095.1,286047542.8,N,0.0,0.0
1493891115.8,286047447.7,N,0.0,0.0
1493891135.7,286047544.8,N,0.0,0.0
1493891155.5,286047542.9,N,0.0,0.0
1493891175.3,286047416.5,N,0.0,0.0
1493891195.2,286047416.8,N,0.0,0.0
1493891215.0,286047572.6,N,0.0,0.0
1493891215.9,286047572.6,N,0.0,0.0
1493891235.7,286047573.9,N,0.0,0.0
1493891255.6,286047534.6,N,0.0,0.0
1493891275.4,286047534.1,Y,0.0,0.0
1493891295.3,286047025.0,N,0.0,0.0
1493891315.1,286047023.4,N,0.0,0.0
1493891316.0,286047023.4,N,0.0,0.0
1493891335.8,286047023.8,N,0.0,0.0
1493891355.7,286047024.9,N,0.0,0.0
1493891375.5,286046904.1,N,0.0,0.0
1493891395.3,286046905.7,N,0.0,0.0
1493891415.1,286046905.6,N,0.0,0.0
1493891435.9,286046908.1,N,0.0,0.0
1493891455.7,286046908.1,N,0.0,0.0
1493891475.5,286046907.6,N,0.0,0.0
1493891495.4,286046921.0,N,0.0,0.0
1493891515.2,286046918.9,N,0.0,0.0
1493891535.0,286046918.2,N,0.0,0.0
1493891535.9,286046918.2,N,0.0,0.0
1493891555.8,286046921.1,N,0.0,0.0
1493891575.6,286046920.7,N,0.0,0.0
1493891595.4,286046921.2,N,0.0,0.0
1493891615.3,286046920.8,N,0.0,0.0
1493891635.1,286046911.3,N,0.0,0.0
1493891655.8,286046909.0,N,0.0,0.0
1493891675.7,286046911.2,N,0.0,0.0
1493891695.5,286046910.4,N,0.0,0.0
1493891715.3,286046912.8,N,0.0,0.0
1493891735.2,286046981.9,N,0.0,0.0
1493891755.9,286046981.5,N,0.0,0.0
1493891775.7,286046981.9,N,0.0,0.0
1493891795.6,286046981.6,N,0.0,0.0
1493891815.4,286046981.1,N,0.0,0.0
1493891835.2,286046984.9,N,0.0,0.0
1493891855.0,286046914.1,N,0.0,0.0
1493891856.0,286046914.1,N,0.0,0.0
1493891875.8,286046916.4,N,0.0,0.0
1493891895.6,286046915.8,N,0.0,0.0
1493891915.4,286046957.4,N,0.0,0.0
1493891935.3,286046959.3,N,0.0,0.0
1493891955.1,286046959.5,N,0.0,0.0
1493891975.8,286046956.5,N,0.0,0.0
1493891995.7,286046956.7,N,0.0,0.0
